Location: *
(40.7873°S, 98.7174°E)
Time: 10:18:50
(UTC+00:00)

NOSS 3-4 (C) - Pass Details

Date: 28 September 2022
Orbit: 836 x 1376 km, 63.4° (Epoch: 25 November)

Event Time Altitude Azimuth Distance (km) Brightness Sun altitude
Exits shadow 17:59:01 16° 99° (E) 2,948 6.1 -45.9°
Drops below altitude 10° 18:01:35 10° 115° (ESE) 3,378 6.6 -45.7°
Sets 18:05:19 0° 131° (SE) 4,289 7.4 -45.5°
